2019-036Y (44361 NORAD) Tracking and Keplerian Element Data

This shows tracking and keplerian element data for the satellite.

Feedback or suggestion? Click here.




ElementValue
Catalog44361
Name2019-036Y
Epoch Orbit4246
Epoch Day93.81819935
Epoch Year2020
RAAN142.6709
Inclination28.5214
Eccentricity0.0343301
Argument of Perigee247.455
Mean Anonmoly108.937
Mean Motion15.11561957
Decay Rate0.0004859
L11 44361U 19036Y 20093.81819935 .00048590 -57886-5 58424-3 0 9997
L22 44361 28.5214 142.6709 0343301 247.4550 108.9370 15.11561957 42467

Live tracking and technical data element details for 2019-036Y (NORAD 44361). 2019-036Y can be tracked NOW for your location showing map with azimuth and elevation plus other details from your city location.

Track the satellite on the map from your city or location and see movement details for azimuth, elevation, latitude, longitude, range, height, and movement on the map or in text.







IsCatalogInMostPopularTable: catalog: 44361, numindb: 46
Update: records affected: 1



GetName: 44361 2019-036Y

Hit Count: updated at: Fri, 10 Apr 2020 03:02:05 GMT